Regional Weather Roundup
Issued by NWS

Home | Current Version | Previous Version | Graphics & Text | Print | Product List | Glossary On
Versions: 1 2 3 4 5 6 7 8 9 10 11 12 13 14 15 16 17 18 19 20 21 22 23 24 25 26 27 28 29 30 31 32 33 34 35 36 37 38 39 40 41 42 43 44 45 46 47 48 49 50
000
ASUS43 KMPX 210601
RWRMN
WEATHER ROUNDUP FOR MINNESOTA
NATIONAL WEATHER SERVICE TWIN CITIES/CHANHASSEN MN
100 AM CDT THU SEP 21 2017


NOTE: "FAIR" INDICATES FEW OR NO CLOUDS BELOW 12,000 FEET WITH NO
SIGNIFICANT WEATHER AND/OR OBSTRUCTIONS TO VISIBILITY. N/A MEANS
CURRENT SKY AND/OR WEATHER CONDITIONS ARE NOT AVAILABLE.

MNZ060>063-068>070-210700-
   Twin Cities Metro

CITY           SKY/WX    TMP DP  RH WIND       PRES   REMARKS
TWIN CITIES    CLEAR     58  55  90 CALM      29.99R
6HR MIN TEMP:  58; 6HR MAX TEMP:  70;

ST PAUL        CLEAR     56  53  90 VRB3      29.99R
CRYSTAL        CLEAR     51  47  86 CALM      29.98R
BLAINE         CLEAR     52  52 100 CALM      29.99R
LAKEVILLE      CLEAR     52  52 100 CALM      29.99R
EDEN PRAIRIE   CLEAR     55  52  89 CALM      29.98R
6HR MIN TEMP:  54; 6HR MAX TEMP:  69;

SOUTH ST PAUL  CLEAR     55  52  88 CALM      29.99R
LAKE ELMO      FAIR      52  50  93 CALM      30.00R
$$
MNZ001>005-007-008-013>017-022>024-027-028-210700-
   Northwest Minnesota

CITY           SKY/WX    TMP DP  RH WIND       PRES   REMARKS
BEMIDJI        CLEAR     50  43  78 S6        29.92R
HALLOCK        CLOUDY    54  46  76 S13       29.80R
ROSEAU         CLEAR     54  46  76 S10       29.84R
WARROAD        CLEAR     54  46  76 S3        29.85S
CROOKSTON      CLEAR     55  45  67 S12       29.85R
FOSSTON        CLEAR     54  45  71 SE8       29.89S
DETROIT LAKES  CLEAR     52  46  82 SE6       29.92S
MOORHEAD       CLEAR     54  45  71 SE9       29.87S
PARK RAPIDS    CLEAR     51  44  77 SE8       29.93R
MAHNOMEN       FAIR      52  43  70 SE8       29.88S
$$
MNZ006-009>011-018-025>026-210700-
   North Central Minnesota

CITY           SKY/WX    TMP DP  RH WIND       PRES   REMARKS
BAUDETTE       CLEAR     51  46  83 S6        29.87S
FLAG ISLAND    CLEAR     59  46  63 S8        29.83S
INTL FALLS     CLEAR     47  42  83 S3        29.93R
6HR MIN TEMP:  43; 6HR MAX TEMP:  58;

WASKISH        CLEAR     52  45  76 S6        29.91R
BIG FORK       CLEAR     43  43 100 CALM      29.96R
LONGVILLE      CLEAR     39  39 100 CALM      29.96R FOG
GRAND RAPIDS   CLEAR     46  45  96 S5        30.00R
CRANE LAKE     CLEAR     39  39 100 CALM      29.98R
ORR            CLEAR     46  43  87 CALM      29.94R
COOK           CLEAR     43  43 100 CALM      29.98R
WALKER         FAIR      54  43  66 S3        29.93S
$$
MNZ012-019>021-037-210700-
   Northeast Minnesota

CITY           SKY/WX    TMP DP  RH WIND       PRES   REMARKS
DULUTH         CLEAR     45  44  97 CALM      29.99R
6HR MIN TEMP:  45; 6HR MAX TEMP:  61;

ELY            CLEAR     46  45  93 CALM      30.00R
HIBBING        CLEAR     39  39 100 NW3       29.99R
EVELETH        CLEAR     42  40  91 CALM      30.00R
DULUTH HARBOR  CLEAR     55  52  88 SW5       29.99R
GRAND MARAIS     N/A     54  49  83 VRB3      29.97R
$$
MNZ029>031-032-039>041-046>048-054>057-064-210700-
   West Central Minnesota

CITY           SKY/WX    TMP DP  RH WIND       PRES   REMARKS
FERGUS FALLS   CLEAR     55  46  71 SE7       29.91R
WHEATON        CLEAR     52  45  76 SE9       29.91R
MORRIS         CLEAR     52  48  87 SE8       29.92R
ALEXANDRIA     CLEAR     53  46  77 SE6       29.95R
ELBOW LAKE     FAIR      54  47  77 E7        29.92R
WADENA         CLEAR     46  43  87 CALM      29.93S
GLENWOOD       CLEAR     50  46  87 SE6       29.95R
APPLETON       CLEAR     55  46  71 SE6       29.92R
BENSON         CLEAR     55  46  71 S6        29.94S
ORTONVILLE     CLEAR     52  46  82 NE8       29.91S
MADISON        CLEAR     52  46  82 SE3       29.92S
WILLMAR        FAIR      52  48  87 E6        29.96R
$$
MNZ033>034-036-042>043-049>051-058-059-210700-
   Central Minnesota

CITY           SKY/WX    TMP DP  RH WIND       PRES   REMARKS
ST CLOUD       CLEAR     46  46 100 CALM      29.98R
6HR MIN TEMP:  45; 6HR MAX TEMP:  63;

SAUK CENTRE    FAIR      47  45  93 SE3       29.96R
PAYNESVILLE    CLEAR     48  48 100 CALM      29.97R
AITKIN         CLEAR     39  37  93 CALM      29.97R
PINE RIVER     CLEAR     43  39  87 CALM      29.99S
BRAINERD       CLEAR     46  44  93 CALM      29.97R
LITTLE FALLS   CLEAR     45  41  87 S9        29.97R
LITCHFIELD     CLEAR     54  54 100 SE5       29.98R
BUFFALO        CLEAR     47  44  88 CALM      29.99S
MAPLE LAKE     CLEAR     48  47  99 CALM      29.99S FOG
HUTCHINSON     CLEAR     49  48  96 E3        29.99R
$$
MNZ037-044-045-052-053-210700-
   East Central Minnesota

CITY           SKY/WX    TMP DP  RH WIND       PRES   REMARKS
PRINCETON      CLEAR     45  45 100 CALM      29.99R
MORA           CLEAR     45  45 100 CALM      30.01R
RUSH CITY      MOCLDY    46  45  96 CALM      30.00R
MOOSE LAKE     CLEAR     41  41 100 CALM      29.98R
HINCKLEY       FAIR      45  45 100 CALM      30.00R
CLOQUET        CLEAR     45  43  93 CALM      29.99R
MCGREGOR       CLEAR     45  43  93 CALM      29.99R
$$
MNZ071>073-080-081-089-090-097-098-210700-
   Southwest Minnesota

CITY           SKY/WX    TMP DP  RH WIND       PRES   REMARKS
MONTEVIDEO     CLEAR     52  46  82 S6        29.94R
GRANITE FALLS  CLEAR     54  49  82 E6        29.95R
CANBY          CLEAR     51  47  86 SE5       29.93R
REDWOOD FALLS  CLEAR     55  48  77 E7        29.95R
OLIVIA         CLEAR     54  46  76 E6        29.95R
PIPESTONE      CLEAR     54  45  71 SE6       29.93S
WINDOM         CLEAR     54  46  76 CALM      29.97R
WORTHINGTON    CLEAR     50  47  89 E7        29.97R
JACKSON        CLEAR     52  46  82 CALM      29.98R
TRACY          CLEAR     56  48  76 SE6       29.96R
SLAYTON        CLEAR     48  46  91 CALM      29.96R
$$
MNZ065>067-074>077-082>085-091>093-210700-
   South Central Minnesota

CITY           SKY/WX    TMP DP  RH WIND       PRES   REMARKS
MANKATO        CLEAR     59  50  72 NE8       29.99R
NEW ULM        CLEAR     57  46  67 E7        29.98R
ST JAMES       CLEAR     52  48  87 E3        29.98S
FAIRMONT       CLEAR     53  49  86 E3        29.98R
GLENCOE        CLEAR     52  50  93 E3        29.98R
FARIBAULT      CLEAR     48  48 100 CALM      29.99S
OWATONNA       CLEAR     52  48  87 CALM      29.98S
WASECA         CLEAR     54  48  82 NE5       29.99S
ALBERT LEA     CLEAR     55  54  94 CALM      29.98R
$$
MNZ078>079-086>088-094>096-210700-
   Southeast Minnesota

CITY           SKY/WX    TMP DP  RH WIND       PRES   REMARKS
ROCHESTER      CLEAR     55  52  89 N7        29.99S
6HR MIN TEMP:  55; 6HR MAX TEMP:  68;

RED WING       CLEAR     54  50  87 CALM      29.97S
STANTON        CLEAR     52  50  94 CALM      29.98S
DODGE CENTER   CLEAR     52  48  87 CALM      29.99S
WINONA         CLEAR     59  57  94 CALM      29.96R
AUSTIN         CLEAR     54  52  94 CALM      29.97S
PRESTON        CLEAR     57  52  83 N5        29.99R
$$
ABBREVIATIONS USED IN REMARKS
   TC - TEMPERATURES IN CELSIUS
  WCI - WIND CHILL INDEX
   HX - HEAT INDEX
  VSB - VISIBILITY
$$




USA.gov is the U.S. government's official web portal to all federal, state and local government web resources and services.